Regional Weather Roundup
Issued by NWS

Home | Current Version | Previous Version | Text Only | Print | Product List | Glossary On
Versions: 1 2 3 4 5 6 7 8 9 10 11 12 13 14 15 16 17 18 19 20 21 22 23 24 25 26 27 28 29 30 31 32 33 34 35 36 37 38 39 40 41 42 43 44 45 46 47 48 49 50
000
ASUS45 KCYS 031310
RWRWY

WYOMING REGIONAL WEATHER ROUNDUP
NATIONAL WEATHER SERVICE CHEYENNE WY
600 AM MST TUE MAR 03 2015

NOTE:  "FAIR" INDICATES FEW OR NO CLOUDS BELOW 12,000 FEET
WITH NO SIGNIFICANT WEATHER AND/OR OBSTRUCTIONS TO VISIBILITY.

WYZ001-031400-
YELLOWSTONE NATIONAL PARK

CITY           SKY/WX    TMP DP  RH WIND       PRES   REMARKS
LK YELLOWSTONE   N/A      4  -3  73 VRB7      29.73R WCI  -8
W YELLOWSTONE  NOT AVBL

$$
WYZ002>013-054>058-071-098>099-031400-
NORTHERN WYOMING

CITY           SKY/WX    TMP DP  RH WIND       PRES   REMARKS
JACKSON        CLOUDY    19  18  93 N15G22    29.66R WCI   5
CODY           CLOUDY     9   7  92 N22       29.95R WCI -11
GREYBULL       CLOUDY    17   2  51 NW20      29.93R WCI   1
WORLAND        CLOUDY    15   5  64 W13       29.96R WCI   1
SHERIDAN       LGT SNOW  12   8  84 W14       30.04R FOG     WCI  -3
BUFFALO        CLOUDY     9   5  84 N22G36    29.93S FOG     WCI -11
GILLETTE       FLURRIES   8   3  80 N10       29.97R WCI  -6
HULETT         LGT SNOW  12   7  79 N6        29.97R WCI   3
NEWCASTLE      FAIR      12   3  67 N24G31    29.89R WCI  -8

$$
WYZ014>020-022>026-101>103-031400-
CENTRAL WYOMING

CITY           SKY/WX    TMP DP  RH WIND       PRES   REMARKS
BIG PINEY      FAIR      15  11  83 CALM      29.69F
PINEDALE       CLOUDY    18  18 100 SE8       29.71R WCI   7
DUBOIS         LGT SNOW  10   9  92 SE13G18   29.69R WCI  -5
LANDER         LGT SNOW  13  11  92 E7        29.83S VSB 1   WCI   3
RIVERTON       LGT SNOW  12   9  87 NE8       29.85R VSB 3/4 WCI   0
CASPER         LGT SNOW  10   5  80 E10       29.91S WCI  -4
DOUGLAS        LGT SNOW  12   8  84 N15       29.92R FOG     WCI  -4

$$
WYZ021-027>030-104>119-031400-
SOUTHERN WYOMING

CITY           SKY/WX    TMP DP  RH WIND       PRES   REMARKS
EVANSTON       LGT SNOW  24  22  91 SW10      29.71S FOG     WCI  14
KEMMERER       CLOUDY    19  19 100 SW5       29.69F WCI  13
FORT BRIDGER   FAIR      21  19  93 SW10      29.74S WCI   9
ROCK SPRINGS   CLOUDY    18  16  92 NE7       29.75S WCI   9
DIXON          CLOUDY    24  20  87 CALM      29.79R
RAWLINS        LGT SNOW  12   8  84 N6        29.76R FOG     WCI   3
SARATOGA       LGT SNOW  16  14  93 NW14      29.74R WCI   1
LARAMIE        FLURRIES  16  10  77 NE12      29.69R WCI   3
CHEYENNE       CLOUDY    18  12  77 N24G33    29.75R WCI   0
TORRINGTON     LGT SNOW  17  11  77 N12G24    29.89R WCI   4
PINE BLUFFS    LGT SNOW  23  19  86 N25G32    29.78R WCI   7

$$


USA.gov is the U.S. government's official web portal to all federal, state and local government web resources and services.